Location: Unspecified
(52.0000°N, 4.4000°E)
Time: 00:10:46
(UTC+00:00)

Cosmos 2151 - Pass Details

Date: 14 May 2025
Orbit: 562 x 578 km, 82.5° (Epoch: 22 June)

Event Time Altitude Azimuth Distance (km) Brightness Sun altitude
Rises 20:32:59 0° 346° (NNW) 2,801 7.6 -8.4°
Reaches altitude 10° 20:35:12 10° 342° (NNW) 1,900 6.7 -8.7°
Maximum altitude 20:39:18 56° 264° (W) 691 3.5 -9.1°
Drops below altitude 10° 20:43:24 10° 186° (S) 1,890 5.2 -9.5°
Enters shadow 20:44:40 - 184° (S) 2,401 5.7 -9.7°
